Location: Village de las Huertas
(35.3014°N, 106.4095°W)
Time: 00:12:20
(UTC+00:00)

Cosmos 2360 Rocket - Visible Passes

Search period start: 07 March 2021 00:00
Search period end: 17 March 2021 00:00
Orbit: 832 x 846 km, 71.0° (Epoch: 06 March)

Date Brightness Start Highest point End Pass type
(mag) Time Alt. Az. Time Alt. Az. Time Alt. Az.
07 Mar 4.3 02:19:26 10° WSW 02:24:12 28° WNW 02:29:02 10° N visible
07 Mar 5.1 09:34:52 10° NE 09:36:03 11° NE 09:37:15 10° ENE visible
07 Mar 2.2 11:15:15 10° NNW 11:20:57 80° ENE 11:26:36 10° SSE visible
07 Mar 3.9 13:02:49 10° W 13:04:07 11° W 13:05:25 10° WSW visible
08 Mar 4.2 02:03:33 10° WSW 02:08:25 30° WNW 02:13:21 10° N visible
08 Mar 2.3 11:04:04 57° N 11:05:11 75° ENE 11:10:50 10° SSE visible
08 Mar 3.8 12:46:26 10° WNW 12:48:25 12° W 12:50:23 10° WSW visible
09 Mar 4.1 01:47:39 10° WSW 01:52:39 32° WNW 01:57:40 10° N visible
09 Mar 3.5 10:52:22 29° SE 10:52:22 29° SE 10:55:03 10° SSE visible
09 Mar 3.9 12:34:20 12° WSW 12:34:20 12° WSW 12:35:09 10° WSW visible
10 Mar 4.0 01:31:47 10° SW 01:36:51 34° WNW 01:41:59 10° N visible
